Time,TemperatureF,DewpointF,PressureIn,WindDirection,WindDirectionDegrees,WindSpeedMPH,WindSpeedGustMPH,Humidity,HourlyPrecipIn,Conditions,Clouds,dailyrainin,SoftwareType,DateUTC
2013-02-01 00:02:00,45.4,33.2,30.19,SSW,195,0.0,0.0,62,0.00,,---,0.00,VWS V14.01,2013-02-01 08:02:00,
2013-02-01 00:07:00,45.2,33.0,30.20,SSW,197,0.0,0.0,62,0.00,,---,0.00,VWS V14.01,2013-02-01 08:07:00,
2013-02-01 00:12:00,44.4,32.6,30.20,SSW,197,0.0,0.0,63,0.00,,---,0.00,VWS V14.01,2013-02-01 08:12:00,
2013-02-01 00:17:00,43.5,32.9,30.20,SSW,197,0.0,0.0,66,0.00,,---,0.00,VWS V14.01,2013-02-01 08:17:00,
2013-02-01 00:22:00,43.3,33.1,30.20,SSW,197,0.0,0.0,67,0.00,,---,0.00,VWS V14.01,2013-02-01 08:22:00,
2013-02-01 00:27:00,43.6,33.0,30.20,SSW,197,0.0,0.0,66,0.00,,---,0.00,VWS V14.01,2013-02-01 08:27:00,
2013-02-01 00:33:00,43.6,33.0,30.20,SSW,197,0.0,0.0,66,0.00,,---,0.00,VWS V14.01,2013-02-01 08:33:00,
2013-02-01 00:38:00,43.5,32.9,30.20,SSW,196,0.0,0.0,66,0.00,,---,0.00,VWS V14.01,2013-02-01 08:38:00,
2013-02-01 00:43:00,43.3,33.1,30.20,SSW,195,0.0,0.0,67,0.00,,---,0.00,VWS V14.01,2013-02-01 08:43:00,
2013-02-01 00:48:00,42.9,32.7,30.20,SSW,195,0.0,0.0,67,0.00,,---,0.00,VWS V14.01,2013-02-01 08:48:00,
2013-02-01 00:53:00,42.3,32.5,30.20,SSW,195,0.0,0.0,68,0.00,,---,0.00,VWS V14.01,2013-02-01 08:53:00,
2013-02-01 00:58:00,41.9,32.5,30.20,SSW,195,0.0,0.0,69,0.00,,---,0.00,VWS V14.01,2013-02-01 08:58:00,
2013-02-01 01:03:00,41.6,32.2,30.20,SSW,195,0.0,0.0,69,0.00,,---,0.00,VWS V14.01,2013-02-01 09:03:00,
2013-02-01 01:08:00,41.0,32.0,30.20,SSW,195,0.0,0.0,70,0.00,,---,0.00,VWS V14.01,2013-02-01 09:08:00,
2013-02-01 01:13:00,40.9,32.6,30.20,SSW,197,0.0,0.0,72,0.00,,---,0.00,VWS V14.01,2013-02-01 09:13:00,
2013-02-01 01:18:00,40.9,32.6,30.20,SSW,195,0.0,0.0,72,0.00,,---,0.00,VWS V14.01,2013-02-01 09:18:00,
2013-02-01 01:23:00,41.1,32.8,30.20,SSW,197,0.0,0.0,72,0.00,,---,0.00,VWS V14.01,2013-02-01 09:23:00,
2013-02-01 01:28:00,41.3,33.0,30.21,SW,233,0.0,0.0,72,0.00,,---,0.00,VWS V14.01,2013-02-01 09:28:00,
2013-02-01 01:33:00,41.7,33.3,30.20,SW,229,0.0,0.0,72,0.00,,---,0.00,VWS V14.01,2013-02-01 09:33:00,
2013-02-01 01:38:00,42.2,33.5,30.20,SSW,211,0.0,0.0,71,0.00,,---,0.00,VWS V14.01,2013-02-01 09:38:00,
2013-02-01 01:43:00,41.5,32.5,30.20,SSW,198,0.0,0.0,70,0.00,,---,0.00,VWS V14.01,2013-02-01 09:43:00,
2013-02-01 01:48:00,41.1,32.4,30.20,SSW,204,0.0,0.0,71,0.00,,---,0.00,VWS V14.01,2013-02-01 09:48:00,
2013-02-01 01:53:00,41.2,32.9,30.20,SSW,210,0.0,0.0,72,0.00,,---,0.00,VWS V14.01,2013-02-01 09:53:00,
2013-02-01 01:58:00,41.2,32.9,30.20,SW,221,0.0,0.0,72,0.00,,---,0.00,VWS V14.01,2013-02-01 09:58:00,
2013-02-01 02:03:00,41.5,33.2,30.20,SW,219,0.0,0.0,72,0.00,,---,0.00,VWS V14.01,2013-02-01 10:03:00,
2013-02-01 02:08:00,41.7,33.0,30.20,SW,217,0.0,0.0,71,0.00,,---,0.00,VWS V14.01,2013-02-01 10:08:00,
2013-02-01 02:13:00,42.1,33.0,30.20,SW,221,0.0,0.0,70,0.00,,---,0.00,VWS V14.01,2013-02-01 10:13:00,
2013-02-01 02:18:00,42.3,32.9,30.20,SW,221,0.0,0.0,69,0.00,,---,0.00,VWS V14.01,2013-02-01 10:18:00,
2013-02-01 02:23:00,42.1,32.7,30.20,SW,221,0.0,0.0,69,0.00,,---,0.00,VWS V14.01,2013-02-01 10:23:00,
2013-02-01 02:28:00,41.6,32.2,30.20,SSW,210,0.0,0.0,69,0.00,,---,0.00,VWS V14.01,2013-02-01 10:28:00,
2013-02-01 02:33:00,41.2,32.2,30.20,SSW,204,0.0,0.0,70,0.00,,---,0.00,VWS V14.01,2013-02-01 10:33:00,
2013-02-01 02:38:00,41.1,32.4,30.20,SSW,203,0.0,0.0,71,0.00,,---,0.00,VWS V14.01,2013-02-01 10:38:00,
2013-02-01 02:43:00,41.8,32.4,30.20,SSW,211,0.0,0.0,69,0.00,,---,0.00,VWS V14.01,2013-02-01 10:43:00,
2013-02-01 02:48:00,41.9,32.5,30.20,SSW,200,0.0,0.0,69,0.00,,---,0.00,VWS V14.01,2013-02-01 10:48:00,
2013-02-01 02:53:00,41.9,32.5,30.20,SSW,200,0.0,0.0,69,0.00,,---,0.00,VWS V14.01,2013-02-01 10:53:00,
2013-02-01 02:58:00,42.3,32.1,30.20,SSW,198,0.0,0.0,67,0.00,,---,0.00,VWS V14.01,2013-02-01 10:58:00,
2013-02-01 03:03:00,42.1,32.0,30.20,SSW,198,0.0,0.0,67,0.00,,---,0.00,VWS V14.01,2013-02-01 11:03:00,
2013-02-01 03:08:00,41.5,31.7,30.20,SSW,198,0.0,0.0,68,0.00,,---,0.00,VWS V14.01,2013-02-01 11:08:00,
2013-02-01 03:13:00,41.2,31.8,30.20,SSE,155,0.0,0.0,69,0.00,,---,0.00,VWS V14.01,2013-02-01 11:13:00,
2013-02-01 03:18:00,40.6,32.0,30.20,South,174,0.0,0.0,71,0.00,,---,0.00,VWS V14.01,2013-02-01 11:18:00,
2013-02-01 03:23:00,40.4,31.8,30.20,SSW,195,0.0,0.0,71,0.00,,---,0.00,VWS V14.01,2013-02-01 11:23:00,
2013-02-01 03:28:00,40.3,31.7,30.20,SSW,195,0.0,0.0,71,0.00,,---,0.00,VWS V14.01,2013-02-01 11:28:00,
2013-02-01 03:33:00,40.0,31.7,30.20,SSE,167,0.0,0.0,72,0.00,,---,0.00,VWS V14.01,2013-02-01 11:33:00,
2013-02-01 03:38:00,40.4,32.1,30.20,SSE,160,0.0,0.0,72,0.00,,---,0.00,VWS V14.01,2013-02-01 11:38:00,
2013-02-01 03:43:00,40.1,31.5,30.20,South,170,0.0,0.0,71,0.00,,---,0.00,VWS V14.01,2013-02-01 11:43:00,
2013-02-01 03:48:00,40.2,31.9,30.20,SSE,162,0.0,0.0,72,0.00,,---,0.00,VWS V14.01,2013-02-01 11:48:00,
2013-02-01 03:53:00,40.3,31.7,30.20,SSE,148,0.0,0.0,71,0.00,,---,0.00,VWS V14.01,2013-02-01 11:53:00,
2013-02-01 03:58:00,40.3,32.0,30.21,SSE,148,0.0,0.0,72,0.00,,---,0.00,VWS V14.01,2013-02-01 11:58:00,
2013-02-01 04:03:00,39.9,31.6,30.21,SSE,148,0.0,0.0,72,0.00,,---,0.00,VWS V14.01,2013-02-01 12:03:00,
2013-02-01 04:09:00,39.6,32.0,30.21,SSE,148,0.0,0.0,74,0.00,,---,0.00,VWS V14.01,2013-02-01 12:09:00,
2013-02-01 04:14:00,40.2,31.9,30.21,SSE,148,0.0,0.0,72,0.00,,---,0.00,VWS V14.01,2013-02-01 12:14:00,
2013-02-01 04:19:00,40.4,31.8,30.21,SSE,148,0.0,0.0,71,0.00,,---,0.00,VWS V14.01,2013-02-01 12:19:00,
2013-02-01 04:24:00,40.1,31.5,30.21,SSE,148,0.0,0.0,71,0.00,,---,0.00,VWS V14.01,2013-02-01 12:24:00,
2013-02-01 04:29:00,40.1,31.8,30.20,SSE,148,0.0,0.0,72,0.00,,---,0.00,VWS V14.01,2013-02-01 12:29:00,
2013-02-01 04:34:00,40.0,31.7,30.20,SSE,164,0.0,0.0,72,0.00,,---,0.00,VWS V14.01,2013-02-01 12:34:00,
2013-02-01 04:39:00,39.6,31.3,30.20,SSE,165,0.0,0.0,72,0.00,,---,0.00,VWS V14.01,2013-02-01 12:39:00,
2013-02-01 04:44:00,39.1,31.2,30.20,SSE,160,0.0,0.0,73,0.00,,---,0.00,VWS V14.01,2013-02-01 12:44:00,
2013-02-01 04:49:00,39.3,31.7,30.20,SSE,168,0.0,0.0,74,0.00,,---,0.00,VWS V14.01,2013-02-01 12:49:00,
2013-02-01 04:54:00,40.5,32.2,30.20,South,169,0.0,0.0,72,0.00,,---,0.00,VWS V14.01,2013-02-01 12:54:00,
2013-02-01 04:59:00,40.6,31.6,30.20,SSE,152,0.0,0.0,70,0.00,,---,0.00,VWS V14.01,2013-02-01 12:59:00,
2013-02-01 05:04:00,40.1,31.5,30.20,SE,145,0.0,0.0,71,0.00,,---,0.00,VWS V14.01,2013-02-01 13:04:00,
2013-02-01 05:09:00,40.0,31.4,30.20,SE,141,0.0,0.0,71,0.00,,---,0.00,VWS V14.01,2013-02-01 13:09:00,
2013-02-01 05:14:00,39.6,31.3,30.20,SE,141,0.0,0.0,72,0.00,,---,0.00,VWS V14.01,2013-02-01 13:14:00,
2013-02-01 05:19:00,39.5,31.2,30.20,SE,141,0.0,0.0,72,0.00,,---,0.00,VWS V14.01,2013-02-01 13:19:00,
2013-02-01 05:24:00,39.1,31.2,30.20,SE,141,0.0,0.0,73,0.00,,---,0.00,VWS V14.01,2013-02-01 13:24:00,
2013-02-01 05:29:00,38.8,30.9,30.20,SSE,152,0.0,0.0,73,0.00,,---,0.00,VWS V14.01,2013-02-01 13:29:00,
2013-02-01 05:34:00,38.5,31.0,30.21,SSE,162,0.0,0.0,74,0.00,,---,0.00,VWS V14.01,2013-02-01 13:34:00,
2013-02-01 05:39:00,38.1,30.9,30.21,SSE,160,0.0,0.0,75,0.00,,---,0.00,VWS V14.01,2013-02-01 13:39:00,
2013-02-01 05:44:00,38.4,31.2,30.21,SSE,159,0.0,0.0,75,0.00,,---,0.00,VWS V14.01,2013-02-01 13:44:00,
2013-02-01 05:49:00,38.6,31.4,30.21,SSE,160,0.0,0.0,75,0.00,,---,0.00,VWS V14.01,2013-02-01 13:49:00,
2013-02-01 05:54:00,38.9,31.3,30.22,SSE,160,0.0,0.0,74,0.00,,---,0.00,VWS V14.01,2013-02-01 13:54:00,
2013-02-01 05:59:00,37.4,29.9,30.22,NNW,332,0.0,3.0,74,0.00,,---,0.00,VWS V14.01,2013-02-01 13:59:00,
2013-02-01 06:04:00,36.1,29.6,30.22,NNW,335,0.0,0.0,77,0.00,,---,0.00,VWS V14.01,2013-02-01 14:04:00,
2013-02-01 06:09:00,35.6,29.7,30.22,North,353,0.0,0.0,79,0.00,,---,0.00,VWS V14.01,2013-02-01 14:09:00,
2013-02-01 06:14:00,35.2,29.7,30.22,SW,221,0.0,0.0,80,0.00,,---,0.00,VWS V14.01,2013-02-01 14:14:00,
2013-02-01 06:19:00,34.9,29.7,30.22,SW,216,0.0,0.0,81,0.00,,---,0.00,VWS V14.01,2013-02-01 14:19:00,
2013-02-01 06:24:00,34.6,29.7,30.22,SW,224,0.0,0.0,82,0.00,,---,0.00,VWS V14.01,2013-02-01 14:24:00,
2013-02-01 06:29:00,34.9,30.0,30.22,SSW,208,0.0,0.0,82,0.00,,---,0.00,VWS V14.01,2013-02-01 14:29:00,
2013-02-01 06:34:00,35.1,30.2,30.22,SSW,204,0.0,0.0,82,0.00,,---,0.00,VWS V14.01,2013-02-01 14:34:00,
2013-02-01 06:39:00,35.3,30.4,30.22,SSW,204,0.0,0.0,82,0.00,,---,0.00,VWS V14.01,2013-02-01 14:39:00,
2013-02-01 06:44:00,35.5,30.9,30.22,SSW,200,0.0,0.0,83,0.00,,---,0.00,VWS V14.01,2013-02-01 14:44:00,
2013-02-01 06:49:00,36.1,30.8,30.23,SSW,200,0.0,0.0,81,0.00,,---,0.00,VWS V14.01,2013-02-01 14:49:00,
2013-02-01 06:54:00,36.8,31.2,30.23,SSW,200,0.0,0.0,80,0.00,,---,0.00,VWS V14.01,2013-02-01 14:54:00,
2013-02-01 06:59:00,37.3,31.4,30.23,SSW,200,0.0,0.0,79,0.00,,---,0.00,VWS V14.01,2013-02-01 14:59:00,
2013-02-01 07:04:00,38.0,32.1,30.23,SSW,200,0.0,0.0,79,0.00,,---,0.00,VWS V14.01,2013-02-01 15:04:00,
2013-02-01 07:09:00,38.9,32.0,30.23,SSW,200,0.0,0.0,76,0.00,,---,0.00,VWS V14.01,2013-02-01 15:09:00,
2013-02-01 07:14:00,39.3,32.0,30.23,SSW,200,0.0,0.0,75,0.00,,---,0.00,VWS V14.01,2013-02-01 15:14:00,
2013-02-01 07:19:00,39.3,31.4,30.23,SSW,200,0.0,0.0,73,0.00,,---,0.00,VWS V14.01,2013-02-01 15:19:00,
2013-02-01 07:24:00,39.8,32.2,30.24,SSW,200,0.0,0.0,74,0.00,,---,0.00,VWS V14.01,2013-02-01 15:24:00,
2013-02-01 07:30:00,40.4,32.1,30.24,SSW,200,0.0,0.0,72,0.00,,---,0.00,VWS V14.01,2013-02-01 15:30:00,
2013-02-01 07:35:00,40.4,32.1,30.24,SSW,200,0.0,0.0,72,0.00,,---,0.00,VWS V14.01,2013-02-01 15:35:00,
2013-02-01 07:40:00,40.4,32.1,30.23,SSW,200,0.0,0.0,72,0.00,,---,0.00,VWS V14.01,2013-02-01 15:40:00,
2013-02-01 07:45:00,40.7,32.4,30.24,SSW,200,0.0,0.0,72,0.00,,---,0.00,VWS V14.01,2013-02-01 15:45:00,
2013-02-01 07:50:00,42.0,34.3,30.23,SSW,200,0.0,0.0,74,0.00,,---,0.00,VWS V14.01,2013-02-01 15:50:00,
2013-02-01 07:55:00,41.7,32.7,30.23,SSW,200,0.0,0.0,70,0.00,,---,0.00,VWS V14.01,2013-02-01 15:55:00,
2013-02-01 08:00:00,41.3,32.3,30.24,SSW,200,0.0,0.0,70,0.00,,---,0.00,VWS V14.01,2013-02-01 16:00:00,
2013-02-01 08:05:00,41.1,32.4,30.24,SSW,200,0.0,0.0,71,0.00,,---,0.00,VWS V14.01,2013-02-01 16:05:00,
2013-02-01 08:10:00,41.3,32.6,30.24,SSW,200,0.0,0.0,71,0.00,,---,0.00,VWS V14.01,2013-02-01 16:10:00,
2013-02-01 08:15:00,41.4,32.7,30.24,SSW,200,0.0,0.0,71,0.00,,---,0.00,VWS V14.01,2013-02-01 16:15:00,
2013-02-01 08:20:00,41.9,33.5,30.24,NE,37,0.0,0.0,72,0.00,,---,0.00,VWS V14.01,2013-02-01 16:20:00,
2013-02-01 08:25:00,42.2,33.8,30.24,NE,38,0.0,0.0,72,0.00,,---,0.00,VWS V14.01,2013-02-01 16:25:00,
2013-02-01 08:30:00,42.5,33.8,30.24,NE,37,0.0,0.0,71,0.00,,---,0.00,VWS V14.01,2013-02-01 16:30:00,
2013-02-01 08:35:00,43.0,33.9,30.24,NE,39,0.0,0.0,70,0.00,,---,0.00,VWS V14.01,2013-02-01 16:35:00,
2013-02-01 08:40:00,43.4,33.9,30.24,NE,40,0.0,0.0,69,0.00,,---,0.00,VWS V14.01,2013-02-01 16:40:00,
2013-02-01 08:45:00,44.4,33.8,30.24,East,81,0.0,0.0,66,0.00,,---,0.00,VWS V14.01,2013-02-01 16:45:00,
2013-02-01 08:50:00,45.3,35.0,30.24,ESE,105,0.0,0.0,67,0.00,,---,0.00,VWS V14.01,2013-02-01 16:50:00,
2013-02-01 08:55:00,46.2,34.7,30.24,East,89,0.0,0.0,64,0.00,,---,0.00,VWS V14.01,2013-02-01 16:55:00,
2013-02-01 09:00:00,47.0,35.1,30.24,ESE,103,0.0,0.0,63,0.00,,---,0.00,VWS V14.01,2013-02-01 17:00:00,
2013-02-01 09:05:00,47.5,35.1,30.24,ENE,77,0.0,0.0,62,0.00,,---,0.00,VWS V14.01,2013-02-01 17:05:00,
2013-02-01 09:10:00,47.8,35.0,30.24,East,97,0.0,0.0,61,0.00,,---,0.00,VWS V14.01,2013-02-01 17:10:00,
2013-02-01 09:15:00,48.3,35.5,30.24,East,87,0.0,0.0,61,0.00,,---,0.00,VWS V14.01,2013-02-01 17:15:00,
2013-02-01 09:20:00,49.1,35.4,30.24,ENE,63,0.0,0.0,59,0.00,,---,0.00,VWS V14.01,2013-02-01 17:20:00,
2013-02-01 09:25:00,49.6,35.0,30.24,ENE,64,0.0,0.0,57,0.00,,---,0.00,VWS V14.01,2013-02-01 17:25:00,
2013-02-01 09:30:00,50.1,35.5,30.24,North,351,0.0,0.0,57,0.00,,---,0.00,VWS V14.01,2013-02-01 17:30:00,
2013-02-01 09:35:00,50.6,35.5,30.24,NE,49,0.0,0.0,56,0.00,,---,0.00,VWS V14.01,2013-02-01 17:35:00,
2013-02-01 09:40:00,51.0,35.0,30.24,NNE,24,0.0,0.0,54,0.00,,---,0.00,VWS V14.01,2013-02-01 17:40:00,
2013-02-01 09:45:00,51.4,34.9,30.24,NNW,327,0.0,0.0,53,0.00,,---,0.00,VWS V14.01,2013-02-01 17:45:00,
2013-02-01 09:50:00,51.8,34.3,30.24,WNW,285,0.0,0.0,51,0.00,,---,0.00,VWS V14.01,2013-02-01 17:50:00,
2013-02-01 09:55:00,52.3,35.2,30.23,NW,307,0.0,0.0,52,0.00,,---,0.00,VWS V14.01,2013-02-01 17:55:00,
2013-02-01 10:00:00,52.8,35.2,30.24,NW,309,0.0,0.0,51,0.00,,---,0.00,VWS V14.01,2013-02-01 18:00:00,
2013-02-01 10:05:00,53.6,35.4,30.24,SW,233,0.0,0.0,50,0.00,,---,0.00,VWS V14.01,2013-02-01 18:05:00,
2013-02-01 10:10:00,54.6,34.8,30.24,WNW,284,0.0,0.0,47,0.00,,---,0.00,VWS V14.01,2013-02-01 18:10:00,
2013-02-01 10:15:00,54.6,34.8,30.24,West,271,0.0,0.0,47,0.00,,---,0.00,VWS V14.01,2013-02-01 18:15:00,
2013-02-01 10:20:00,55.1,33.0,30.23,NW,309,0.0,0.0,43,0.00,,---,0.00,VWS V14.01,2013-02-01 18:20:00,
2013-02-01 10:25:00,55.4,33.3,30.24,WSW,248,0.0,0.0,43,0.00,,---,0.00,VWS V14.01,2013-02-01 18:25:00,
2013-02-01 10:30:00,56.2,34.0,30.24,NE,35,0.0,0.0,43,0.00,,---,0.00,VWS V14.01,2013-02-01 18:30:00,
2013-02-01 10:35:00,56.2,33.4,30.23,WNW,294,0.0,0.0,42,0.00,,---,0.00,VWS V14.01,2013-02-01 18:35:00,
2013-02-01 10:40:00,56.8,34.0,30.23,NNE,26,0.0,0.0,42,0.00,,---,0.00,VWS V14.01,2013-02-01 18:40:00,
2013-02-01 10:45:00,56.7,33.9,30.23,NNW,333,0.0,0.0,42,0.00,,---,0.00,VWS V14.01,2013-02-01 18:45:00,
2013-02-01 10:50:00,56.6,33.2,30.23,NE,46,0.0,2.0,41,0.00,,---,0.00,VWS V14.01,2013-02-01 18:50:00,
2013-02-01 10:55:00,57.3,34.4,30.22,WSW,248,0.0,2.0,42,0.00,,---,0.00,VWS V14.01,2013-02-01 18:55:00,
2013-02-01 11:00:00,57.8,33.7,30.22,West,274,0.0,0.0,40,0.00,,---,0.00,VWS V14.01,2013-02-01 19:00:00,
2013-02-01 11:05:00,57.8,33.7,30.22,NNE,28,0.0,1.0,40,0.00,,---,0.00,VWS V14.01,2013-02-01 19:05:00,
2013-02-01 11:10:00,57.6,33.5,30.22,NE,51,0.0,1.0,40,0.00,,---,0.00,VWS V14.01,2013-02-01 19:10:00,
2013-02-01 11:15:00,58.0,33.8,30.22,SW,219,0.0,1.0,40,0.00,,---,0.00,VWS V14.01,2013-02-01 19:15:00,
2013-02-01 11:20:00,58.4,33.6,30.22,East,81,0.0,3.0,39,0.00,,---,0.00,VWS V14.01,2013-02-01 19:20:00,
2013-02-01 11:25:00,58.7,33.2,30.22,East,88,0.0,4.0,38,0.00,,---,0.00,VWS V14.01,2013-02-01 19:25:00,
2013-02-01 11:30:00,59.2,33.6,30.22,ENE,60,4.0,5.0,38,0.00,,---,0.00,VWS V14.01,2013-02-01 19:30:00,
2013-02-01 11:35:00,59.2,33.6,30.21,East,79,0.0,7.0,38,0.00,,---,0.00,VWS V14.01,2013-02-01 19:35:00,
2013-02-01 11:40:00,59.6,34.0,30.21,NNE,32,0.0,7.0,38,0.00,,---,0.00,VWS V14.01,2013-02-01 19:40:00,
2013-02-01 11:45:00,59.5,33.2,30.21,NE,39,0.0,7.0,37,0.00,,---,0.00,VWS V14.01,2013-02-01 19:45:00,
2013-02-01 11:50:00,59.6,33.3,30.21,NNW,345,0.0,7.0,37,0.00,,---,0.00,VWS V14.01,2013-02-01 19:50:00,
2013-02-01 11:55:00,59.5,33.2,30.21,ENE,63,0.0,7.0,37,0.00,,---,0.00,VWS V14.01,2013-02-01 19:55:00,
2013-02-01 12:00:00,59.9,34.2,30.20,North,10,0.0,0.0,38,0.00,,---,0.00,VWS V14.01,2013-02-01 20:00:00,
2013-02-01 12:05:00,60.2,33.8,30.20,NE,46,5.0,5.0,37,0.00,,---,0.00,VWS V14.01,2013-02-01 20:05:00,
2013-02-01 12:10:00,60.2,33.2,30.20,NW,312,0.0,5.0,36,0.00,,---,0.00,VWS V14.01,2013-02-01 20:10:00,
2013-02-01 12:15:00,60.2,33.8,30.20,West,271,0.0,5.0,37,0.00,,---,0.00,VWS V14.01,2013-02-01 20:15:00,
2013-02-01 12:20:00,61.2,34.1,30.20,ESE,110,0.0,5.0,36,0.00,,---,0.00,VWS V14.01,2013-02-01 20:20:00,
2013-02-01 12:25:00,61.6,33.7,30.19,NNE,26,2.0,6.0,35,0.00,,---,0.00,VWS V14.01,2013-02-01 20:25:00,
2013-02-01 12:30:00,61.2,33.3,30.19,NE,44,0.0,8.0,35,0.00,,---,0.00,VWS V14.01,2013-02-01 20:30:00,
2013-02-01 12:35:00,61.2,33.3,30.19,NE,53,0.0,8.0,35,0.00,,---,0.00,VWS V14.01,2013-02-01 20:35:00,
2013-02-01 12:40:00,61.8,33.9,30.18,NE,54,0.0,8.0,35,0.00,,---,0.00,VWS V14.01,2013-02-01 20:40:00,
2013-02-01 12:45:00,61.8,33.9,30.18,NE,47,5.0,8.0,35,0.00,,---,0.00,VWS V14.01,2013-02-01 20:45:00,
2013-02-01 12:50:00,61.8,33.9,30.18,NE,39,4.0,8.0,35,0.00,,---,0.00,VWS V14.01,2013-02-01 20:50:00,
2013-02-01 12:56:00,61.8,33.9,30.18,North,355,4.0,8.0,35,0.00,,---,0.00,VWS V14.01,2013-02-01 20:56:00,
2013-02-01 13:01:00,62.1,34.2,30.18,NE,46,3.0,3.0,35,0.00,,---,0.00,VWS V14.01,2013-02-01 21:01:00,
2013-02-01 13:06:00,62.0,34.1,30.17,NE,47,1.0,8.0,35,0.00,,---,0.00,VWS V14.01,2013-02-01 21:06:00,
2013-02-01 13:11:00,62.4,34.4,30.17,NE,51,0.0,8.0,35,0.00,,---,0.00,VWS V14.01,2013-02-01 21:11:00,
2013-02-01 13:16:00,62.4,33.7,30.17,South,169,0.0,8.0,34,0.00,,---,0.00,VWS V14.01,2013-02-01 21:16:00,
2013-02-01 13:21:00,63.0,34.2,30.17,North,356,0.0,8.0,34,0.00,,---,0.00,VWS V14.01,2013-02-01 21:21:00,
2013-02-01 13:26:00,63.3,34.5,30.17,North,359,5.0,8.0,34,0.00,,---,0.00,VWS V14.01,2013-02-01 21:26:00,
2013-02-01 13:31:00,63.4,33.8,30.17,WNW,300,0.0,8.0,33,0.00,,---,0.00,VWS V14.01,2013-02-01 21:31:00,
2013-02-01 13:36:00,63.3,33.7,30.16,NNE,33,8.0,8.0,33,0.00,,---,0.00,VWS V14.01,2013-02-01 21:36:00,
2013-02-01 13:41:00,63.0,34.2,30.16,NE,48,4.0,8.0,34,0.00,,---,0.00,VWS V14.01,2013-02-01 21:41:00,
2013-02-01 13:46:00,63.1,33.6,30.16,NE,40,0.0,8.0,33,0.00,,---,0.00,VWS V14.01,2013-02-01 21:46:00,
2013-02-01 13:51:00,63.8,34.2,30.16,NE,36,0.0,8.0,33,0.00,,---,0.00,VWS V14.01,2013-02-01 21:51:00,
2013-02-01 13:56:00,64.2,34.5,30.16,East,82,0.0,8.0,33,0.00,,---,0.00,VWS V14.01,2013-02-01 21:56:00,
2013-02-01 14:01:00,65.1,34.5,30.16,North,352,0.0,0.0,32,0.00,,---,0.00,VWS V14.01,2013-02-01 22:01:00,
2013-02-01 14:06:00,64.4,33.9,30.16,WNW,290,0.0,4.0,32,0.00,,---,0.00,VWS V14.01,2013-02-01 22:06:00,
2013-02-01 14:11:00,64.3,33.8,30.16,North,349,0.0,4.0,32,0.00,,---,0.00,VWS V14.01,2013-02-01 22:11:00,
2013-02-01 14:16:00,64.6,34.1,30.16,ESE,120,0.0,4.0,32,0.00,,---,0.00,VWS V14.01,2013-02-01 22:16:00,
2013-02-01 14:21:00,65.2,33.8,30.16,NNE,30,0.0,4.0,31,0.00,,---,0.00,VWS V14.01,2013-02-01 22:21:00,
2013-02-01 14:26:00,64.7,34.2,30.16,NE,51,0.0,4.0,32,0.00,,---,0.00,VWS V14.01,2013-02-01 22:26:00,
2013-02-01 14:31:00,64.7,34.2,30.16,North,11,0.0,4.0,32,0.00,,---,0.00,VWS V14.01,2013-02-01 22:31:00,
2013-02-01 14:36:00,64.8,34.3,30.15,NE,37,0.0,4.0,32,0.00,,---,0.00,VWS V14.01,2013-02-01 22:36:00,
2013-02-01 14:41:00,64.9,34.4,30.15,West,277,0.0,4.0,32,0.00,,---,0.00,VWS V14.01,2013-02-01 22:41:00,
2013-02-01 14:46:00,64.8,34.3,30.15,NNW,340,0.0,4.0,32,0.00,,---,0.00,VWS V14.01,2013-02-01 22:46:00,
2013-02-01 14:51:00,65.0,34.5,30.15,NE,54,0.0,4.0,32,0.00,,---,0.00,VWS V14.01,2013-02-01 22:51:00,
2013-02-01 14:56:00,65.1,33.7,30.15,NE,54,0.0,4.0,31,0.00,,---,0.00,VWS V14.01,2013-02-01 22:56:00,
2013-02-01 15:01:00,65.0,33.7,30.15,North,1,0.0,4.0,31,0.00,,---,0.00,VWS V14.01,2013-02-01 23:01:00,
2013-02-01 15:06:00,64.9,33.6,30.15,SE,131,0.0,4.0,31,0.00,,---,0.00,VWS V14.01,2013-02-01 23:06:00,
2013-02-01 15:11:00,65.5,33.3,30.15,WNW,283,0.0,4.0,30,0.00,,---,0.00,VWS V14.01,2013-02-01 23:11:00,
2013-02-01 15:16:00,65.6,33.4,30.15,North,355,0.0,4.0,30,0.00,,---,0.00,VWS V14.01,2013-02-01 23:16:00,
2013-02-01 15:21:00,65.2,33.0,30.15,NE,44,4.0,5.0,30,0.00,,---,0.00,VWS V14.01,2013-02-01 23:21:00,
2013-02-01 15:26:00,64.7,32.6,30.15,North,8,4.0,6.0,30,0.00,,---,0.00,VWS V14.01,2013-02-01 23:26:00,
2013-02-01 15:31:00,64.4,33.1,30.15,North,355,0.0,6.0,31,0.00,,---,0.00,VWS V14.01,2013-02-01 23:31:00,
2013-02-01 15:36:00,64.4,33.1,30.15,NNW,333,0.0,6.0,31,0.00,,---,0.00,VWS V14.01,2013-02-01 23:36:00,
2013-02-01 15:41:00,64.5,33.2,30.15,NNW,347,0.0,6.0,31,0.00,,---,0.00,VWS V14.01,2013-02-01 23:41:00,
2013-02-01 15:46:00,64.6,33.3,30.15,WNW,288,0.0,6.0,31,0.00,,---,0.00,VWS V14.01,2013-02-01 23:46:00,
2013-02-01 15:51:00,64.5,33.2,30.15,NW,324,0.0,6.0,31,0.00,,---,0.00,VWS V14.01,2013-02-01 23:51:00,
2013-02-01 15:56:00,64.4,33.1,30.15,NE,35,0.0,6.0,31,0.00,,---,0.00,VWS V14.01,2013-02-01 23:56:00,
2013-02-01 16:01:00,64.3,33.0,30.15,NNE,13,0.0,0.0,31,0.00,,---,0.00,VWS V14.01,2013-02-02 00:01:00,
2013-02-01 16:06:00,64.2,33.0,30.15,NNE,32,0.0,0.0,31,0.00,,---,0.00,VWS V14.01,2013-02-02 00:06:00,
2013-02-01 16:11:00,64.1,32.1,30.15,NNE,33,0.0,0.0,30,0.00,,---,0.00,VWS V14.01,2013-02-02 00:11:00,
2013-02-01 16:16:00,64.1,32.9,30.15,ENE,61,0.0,0.0,31,0.00,,---,0.00,VWS V14.01,2013-02-02 00:16:00,
2013-02-01 16:21:00,64.1,32.9,30.15,NNW,331,0.0,0.0,31,0.00,,---,0.00,VWS V14.01,2013-02-02 00:21:00,
2013-02-01 16:26:00,64.0,32.8,30.15,NW,312,0.0,0.0,31,0.00,,---,0.00,VWS V14.01,2013-02-02 00:26:00,
2013-02-01 16:31:00,63.8,32.6,30.15,NW,312,0.0,0.0,31,0.00,,---,0.00,VWS V14.01,2013-02-02 00:31:00,
2013-02-01 16:36:00,63.7,32.5,30.15,NW,312,0.0,0.0,31,0.00,,---,0.00,VWS V14.01,2013-02-02 00:36:00,
2013-02-01 16:41:00,63.6,32.4,30.15,WNW,287,0.0,0.0,31,0.00,,---,0.00,VWS V14.01,2013-02-02 00:41:00,
2013-02-01 16:46:00,63.4,32.3,30.15,WNW,286,0.0,0.0,31,0.00,,---,0.00,VWS V14.01,2013-02-02 00:46:00,
2013-02-01 16:51:00,63.2,32.9,30.15,WNW,287,0.0,0.0,32,0.00,,---,0.00,VWS V14.01,2013-02-02 00:51:00,
2013-02-01 16:56:00,63.0,32.7,30.15,WNW,287,0.0,0.0,32,0.00,,---,0.00,VWS V14.01,2013-02-02 00:56:00,
2013-02-01 17:01:00,62.9,32.6,30.15,WNW,287,0.0,0.0,32,0.00,,---,0.00,VWS V14.01,2013-02-02 01:01:00,
2013-02-01 17:06:00,62.7,32.4,30.15,WNW,287,0.0,0.0,32,0.00,,---,0.00,VWS V14.01,2013-02-02 01:06:00,
2013-02-01 17:11:00,62.5,32.3,30.15,WNW,287,0.0,0.0,32,0.00,,---,0.00,VWS V14.01,2013-02-02 01:11:00,
2013-02-01 17:16:00,62.3,32.9,30.15,WNW,287,0.0,0.0,33,0.00,,---,0.00,VWS V14.01,2013-02-02 01:16:00,
2013-02-01 17:21:00,62.1,32.7,30.15,WNW,287,0.0,0.0,33,0.00,,---,0.00,VWS V14.01,2013-02-02 01:21:00,
2013-02-01 17:26:00,61.9,32.5,30.16,WNW,286,0.0,0.0,33,0.00,,---,0.00,VWS V14.01,2013-02-02 01:26:00,
2013-02-01 17:31:00,61.6,33.0,30.16,WNW,291,0.0,0.0,34,0.00,,---,0.00,VWS V14.01,2013-02-02 01:31:00,
2013-02-01 17:36:00,61.3,32.7,30.16,WNW,291,0.0,0.0,34,0.00,,---,0.00,VWS V14.01,2013-02-02 01:36:00,
2013-02-01 17:41:00,60.8,34.4,30.16,SW,219,0.0,0.0,37,0.00,,---,0.00,VWS V14.01,2013-02-02 01:41:00,
2013-02-01 17:46:00,60.2,34.5,30.17,SW,219,0.0,0.0,38,0.00,,---,0.00,VWS V14.01,2013-02-02 01:46:00,
2013-02-01 17:52:00,59.8,34.8,30.17,SW,219,0.0,0.0,39,0.00,,---,0.00,VWS V14.01,2013-02-02 01:52:00,
2013-02-01 17:57:00,59.4,35.1,30.17,SW,219,0.0,0.0,40,0.00,,---,0.00,VWS V14.01,2013-02-02 01:57:00,
2013-02-01 18:02:00,58.9,35.3,30.17,SW,219,0.0,0.0,41,0.00,,---,0.00,VWS V14.01,2013-02-02 02:02:00,
2013-02-01 18:07:00,58.6,35.0,30.17,SW,218,0.0,0.0,41,0.00,,---,0.00,VWS V14.01,2013-02-02 02:07:00,
2013-02-01 18:12:00,58.2,35.2,30.18,SSW,207,0.0,0.0,42,0.00,,---,0.00,VWS V14.01,2013-02-02 02:12:00,
2013-02-01 18:17:00,57.8,35.5,30.18,SW,217,0.0,0.0,43,0.00,,---,0.00,VWS V14.01,2013-02-02 02:17:00,
2013-02-01 18:22:00,57.4,35.7,30.18,SSW,212,0.0,0.0,44,0.00,,---,0.00,VWS V14.01,2013-02-02 02:22:00,
2013-02-01 18:27:00,57.2,34.9,30.18,SSW,211,0.0,0.0,43,0.00,,---,0.00,VWS V14.01,2013-02-02 02:27:00,
2013-02-01 18:32:00,57.0,34.8,30.18,SSW,212,0.0,0.0,43,0.00,,---,0.00,VWS V14.01,2013-02-02 02:32:00,
2013-02-01 18:37:00,56.8,34.6,30.19,SW,214,0.0,0.0,43,0.00,,---,0.00,VWS V14.01,2013-02-02 02:37:00,
2013-02-01 18:42:00,56.7,34.5,30.19,South,191,0.0,0.0,43,0.00,,---,0.00,VWS V14.01,2013-02-02 02:42:00,
2013-02-01 18:47:00,56.4,34.8,30.19,SSW,203,0.0,0.0,44,0.00,,---,0.00,VWS V14.01,2013-02-02 02:47:00,
2013-02-01 18:52:00,56.3,34.7,30.20,SSW,212,0.0,0.0,44,0.00,,---,0.00,VWS V14.01,2013-02-02 02:52:00,
2013-02-01 18:57:00,56.1,34.5,30.19,SSW,197,0.0,0.0,44,0.00,,---,0.00,VWS V14.01,2013-02-02 02:57:00,
2013-02-01 19:02:00,55.9,34.3,30.19,SSW,198,0.0,0.0,44,0.00,,---,0.00,VWS V14.01,2013-02-02 03:02:00,
2013-02-01 19:07:00,55.8,34.2,30.19,SSW,193,0.0,0.0,44,0.00,,---,0.00,VWS V14.01,2013-02-02 03:07:00,
2013-02-01 19:12:00,55.5,34.5,30.20,South,190,0.0,0.0,45,0.00,,---,0.00,VWS V14.01,2013-02-02 03:12:00,
2013-02-01 19:17:00,55.2,34.2,30.20,SSE,165,0.0,0.0,45,0.00,,---,0.00,VWS V14.01,2013-02-02 03:17:00,
2013-02-01 19:22:00,55.1,34.2,30.20,South,173,0.0,0.0,45,0.00,,---,0.00,VWS V14.01,2013-02-02 03:22:00,
2013-02-01 19:27:00,55.0,34.1,30.20,South,169,0.0,0.0,45,0.00,,---,0.00,VWS V14.01,2013-02-02 03:27:00,
2013-02-01 19:32:00,54.9,34.0,30.21,South,174,0.0,0.0,45,0.00,,---,0.00,VWS V14.01,2013-02-02 03:32:00,
2013-02-01 19:37:00,54.9,34.0,30.20,South,174,0.0,0.0,45,0.00,,---,0.00,VWS V14.01,2013-02-02 03:37:00,
2013-02-01 19:42:00,54.7,34.3,30.20,South,172,0.0,0.0,46,0.00,,---,0.00,VWS V14.01,2013-02-02 03:42:00,
2013-02-01 19:47:00,54.6,34.2,30.21,SSW,195,0.0,0.0,46,0.00,,---,0.00,VWS V14.01,2013-02-02 03:47:00,
2013-02-01 19:52:00,54.6,34.2,30.21,SSW,205,0.0,0.0,46,0.00,,---,0.00,VWS V14.01,2013-02-02 03:52:00,
2013-02-01 19:57:00,54.5,34.2,30.21,South,186,0.0,0.0,46,0.00,,---,0.00,VWS V14.01,2013-02-02 03:57:00,
2013-02-01 20:02:00,53.9,34.2,30.22,NW,326,0.0,0.0,47,0.00,,---,0.00,VWS V14.01,2013-02-02 04:02:00,
2013-02-01 20:07:00,52.6,34.5,30.22,NW,315,0.0,0.0,50,0.00,,---,0.00,VWS V14.01,2013-02-02 04:07:00,
2013-02-01 20:12:00,51.8,34.3,30.22,NW,316,0.0,4.0,51,0.00,,---,0.00,VWS V14.01,2013-02-02 04:12:00,
2013-02-01 20:17:00,50.9,34.4,30.22,NNW,340,0.0,4.0,53,0.00,,---,0.00,VWS V14.01,2013-02-02 04:17:00,
2013-02-01 20:22:00,50.4,34.4,30.22,WNW,284,0.0,4.0,54,0.00,,---,0.00,VWS V14.01,2013-02-02 04:22:00,
2013-02-01 20:27:00,50.0,34.5,30.22,SSW,206,0.0,4.0,55,0.00,,---,0.00,VWS V14.01,2013-02-02 04:27:00,
2013-02-01 20:32:00,49.8,34.8,30.22,SSW,204,0.0,4.0,56,0.00,,---,0.00,VWS V14.01,2013-02-02 04:32:00,
2013-02-01 20:37:00,49.6,34.6,30.22,SSW,203,0.0,4.0,56,0.00,,---,0.00,VWS V14.01,2013-02-02 04:37:00,
2013-02-01 20:42:00,49.7,34.7,30.23,South,171,0.0,4.0,56,0.00,,---,0.00,VWS V14.01,2013-02-02 04:42:00,
2013-02-01 20:48:00,49.7,34.7,30.23,SSW,196,0.0,4.0,56,0.00,,---,0.00,VWS V14.01,2013-02-02 04:48:00,
2013-02-01 20:53:00,49.8,34.8,30.23,South,191,0.0,4.0,56,0.00,,---,0.00,VWS V14.01,2013-02-02 04:53:00,
2013-02-01 20:58:00,49.8,34.8,30.23,South,191,0.0,4.0,56,0.00,,---,0.00,VWS V14.01,2013-02-02 04:58:00,
2013-02-01 21:01:00,49.9,34.8,30.23,South,183,0.0,0.0,56,0.00,,---,0.00,VWS V14.01,2013-02-02 05:01:00,
2013-02-01 21:02:00,49.9,34.4,30.23,South,172,0.0,0.0,55,0.00,,---,0.00,VWS V14.01,2013-02-02 05:02:00,
2013-02-01 21:03:00,50.0,34.5,30.23,South,191,0.0,0.0,55,0.00,,---,0.00,VWS V14.01,2013-02-02 05:03:00,
2013-02-01 21:08:00,50.1,35.0,30.23,South,190,0.0,0.0,56,0.00,,---,0.00,VWS V14.01,2013-02-02 05:08:00,
2013-02-01 21:13:00,50.0,34.9,30.23,SSE,163,0.0,0.0,56,0.00,,---,0.00,VWS V14.01,2013-02-02 05:13:00,
2013-02-01 21:18:00,50.3,34.8,30.23,South,174,0.0,0.0,55,0.00,,---,0.00,VWS V14.01,2013-02-02 05:18:00,
2013-02-01 21:23:00,50.5,35.0,30.23,SSE,162,0.0,0.0,55,0.00,,---,0.00,VWS V14.01,2013-02-02 05:23:00,
2013-02-01 21:28:00,50.6,34.6,30.23,SSE,160,0.0,0.0,54,0.00,,---,0.00,VWS V14.01,2013-02-02 05:28:00,
2013-02-01 21:33:00,50.7,34.7,30.23,SSE,162,0.0,0.0,54,0.00,,---,0.00,VWS V14.01,2013-02-02 05:33:00,
2013-02-01 21:38:00,50.9,34.9,30.23,SSE,162,0.0,0.0,54,0.00,,---,0.00,VWS V14.01,2013-02-02 05:38:00,
2013-02-01 21:43:00,50.8,34.8,30.23,SSE,149,0.0,0.0,54,0.00,,---,0.00,VWS V14.01,2013-02-02 05:43:00,
2013-02-01 21:48:00,50.8,34.8,30.23,SSE,148,0.0,0.0,54,0.00,,---,0.00,VWS V14.01,2013-02-02 05:48:00,
2013-02-01 21:53:00,50.7,34.7,30.23,SSE,151,0.0,0.0,54,0.00,,---,0.00,VWS V14.01,2013-02-02 05:53:00,
2013-02-01 21:58:00,50.6,34.6,30.23,SSE,155,0.0,0.0,54,0.00,,---,0.00,VWS V14.01,2013-02-02 05:58:00,
2013-02-01 22:03:00,50.5,35.0,30.23,SSE,164,0.0,0.0,55,0.00,,---,0.00,VWS V14.01,2013-02-02 06:03:00,
2013-02-01 22:08:00,50.3,34.8,30.23,SSE,163,0.0,0.0,55,0.00,,---,0.00,VWS V14.01,2013-02-02 06:08:00,
2013-02-01 22:13:00,50.4,34.9,30.24,SSE,162,0.0,0.0,55,0.00,,---,0.00,VWS V14.01,2013-02-02 06:13:00,
2013-02-01 22:18:00,50.5,35.0,30.23,SSE,153,0.0,0.0,55,0.00,,---,0.00,VWS V14.01,2013-02-02 06:18:00,
2013-02-01 22:23:00,50.6,34.6,30.24,SSE,160,0.0,0.0,54,0.00,,---,0.00,VWS V14.01,2013-02-02 06:23:00,
2013-02-01 22:28:00,50.8,34.8,30.24,South,187,0.0,0.0,54,0.00,,---,0.00,VWS V14.01,2013-02-02 06:28:00,
2013-02-01 22:33:00,50.7,34.7,30.24,South,172,0.0,0.0,54,0.00,,---,0.00,VWS V14.01,2013-02-02 06:33:00,
2013-02-01 22:38:00,50.5,35.0,30.24,South,174,0.0,0.0,55,0.00,,---,0.00,VWS V14.01,2013-02-02 06:38:00,
2013-02-01 22:43:00,50.9,34.9,30.24,South,177,0.0,0.0,54,0.00,,---,0.00,VWS V14.01,2013-02-02 06:43:00,
2013-02-01 22:48:00,50.5,35.0,30.24,South,177,0.0,0.0,55,0.00,,---,0.00,VWS V14.01,2013-02-02 06:48:00,
2013-02-01 22:53:00,50.5,35.0,30.23,South,177,0.0,0.0,55,0.00,,---,0.00,VWS V14.01,2013-02-02 06:53:00,
2013-02-01 22:58:00,50.3,34.8,30.23,South,178,0.0,0.0,55,0.00,,---,0.00,VWS V14.01,2013-02-02 06:58:00,
2013-02-01 23:03:00,50.8,33.8,30.24,SSW,205,0.0,0.0,52,0.00,,---,0.00,VWS V14.01,2013-02-02 07:03:00,
2013-02-01 23:08:00,50.7,34.2,30.24,SSW,205,0.0,0.0,53,0.00,,---,0.00,VWS V14.01,2013-02-02 07:08:00,
2013-02-01 23:13:00,50.2,34.7,30.24,SSW,205,0.0,0.0,55,0.00,,---,0.00,VWS V14.01,2013-02-02 07:13:00,
2013-02-01 23:18:00,49.5,34.9,30.24,SSW,205,0.0,0.0,57,0.00,,---,0.00,VWS V14.01,2013-02-02 07:18:00,
2013-02-01 23:23:00,48.8,34.7,30.24,SSW,205,0.0,0.0,58,0.00,,---,0.00,VWS V14.01,2013-02-02 07:23:00,
2013-02-01 23:28:00,48.2,35.0,30.24,SSW,205,0.0,0.0,60,0.00,,---,0.00,VWS V14.01,2013-02-02 07:28:00,
2013-02-01 23:33:00,47.9,35.1,30.24,SSW,205,0.0,0.0,61,0.00,,---,0.00,VWS V14.01,2013-02-02 07:33:00,
2013-02-01 23:38:00,47.5,34.7,30.24,SSW,205,0.0,0.0,61,0.00,,---,0.00,VWS V14.01,2013-02-02 07:38:00,
2013-02-01 23:43:00,47.5,34.7,30.24,SSW,205,0.0,0.0,61,0.00,,---,0.00,VWS V14.01,2013-02-02 07:43:00,
2013-02-01 23:48:00,47.3,35.0,30.24,SSW,209,0.0,0.0,62,0.00,,---,0.00,VWS V14.01,2013-02-02 07:48:00,
2013-02-01 23:53:00,47.1,34.4,30.24,SSW,204,0.0,0.0,61,0.00,,---,0.00,VWS V14.01,2013-02-02 07:53:00,
2013-02-01 23:58:00,47.6,34.4,30.24,SSW,204,0.0,0.0,60,0.00,,---,0.00,VWS V14.01,2013-02-02 07:58:00,